Location: �quirre
(50.4736°N, 2.2351°E)
Time: 03:58:41
(UTC+00:00)

Cosmos 1975 Rocket - Pass Details

Date: 07 August 2020
Orbit: 603 x 634 km, 82.5° (Epoch: 19 September)

Event Time Altitude Azimuth Distance (km) Brightness Sun altitude
Rises 00:38:41 0° 346° (NNW) 2,946 7.6 -22.6°
Reaches altitude 10° 00:40:58 10° 342° (NNW) 2,033 6.5 -22.5°
Maximum altitude 00:45:22 54° 266° (W) 775 3.4 -22.3°
Enters shadow 00:45:37 53° 251° (WSW) 782 3.3 -22.3°
